| time (UTC) | temp F | wind direction | speed knots | gust knots | rain 1hr in | rain 24hr in | rain mn in | humidity % | barometer mb |
| 20260905224555 | 87 | 0 | 0.0 | 0.0 | 0.00 | 0.02 | 0.02 | 74 | 1012.7 |
| 20260905223052 | 87 | 0 | 0.0 | 0.0 | 0.00 | 0.02 | 0.02 | 71 | 1012.3 |
| 20260905221552 | 88 | 0 | 0.0 | 0.0 | 0.00 | 0.02 | 0.02 | 69 | 1012.5 |
| 20260905220100 | 89 | 0 | 0.0 | 0.9 | 0.00 | 0.02 | 0.02 | 69 | 1012.3 |
| 20260905214552 | 89 | 132 | 0.0 | 0.9 | 0.00 | 0.02 | 0.02 | 68 | 1012.3 |
| 20260905213052 | 89 | 0 | 0.0 | 0.0 | 0.00 | 0.02 | 0.02 | 68 | 1012.5 |
| 20260905211553 | 89 | 0 | 0.0 | 0.0 | 0.00 | 0.02 | 0.02 | 69 | 1012.5 |
| 20260905210115 | 89 | 0 | 0.0 | 0.9 | 0.00 | 0.02 | 0.02 | 65 | 1012.6 |
| 20260905204558 | 89 | 0 | 0.0 | 1.7 | 0.00 | 0.02 | 0.02 | 64 | 1012.9 |
| 20260905203101 | 89 | 0 | 0.0 | 1.7 | 0.00 | 0.02 | 0.02 | 64 | 1012.9 |
| 20260905201600 | 90 | 0 | 0.0 | 0.9 | 0.00 | 0.02 | 0.02 | 65 | 1013.2 |
| 20260905200117 | 91 | 128 | 0.0 | 0.9 | 0.00 | 0.02 | 0.02 | 63 | 1013.4 |
| 20260905194607 | 92 | 0 | 0.0 | 0.9 | 0.00 | 0.02 | 0.02 | 63 | 1013.5 |
| 20260905193050 | 92 | 0 | 0.0 | 1.7 | 0.00 | 0.02 | 0.02 | 59 | 1013.8 |
| 20260905191603 | 93 | 0 | 0.0 | 0.9 | 0.00 | 0.02 | 0.02 | 59 | 1014.1 |
| 20260905190057 | 93 | 160 | 0.0 | 0.9 | 0.00 | 0.02 | 0.02 | 57 | 1014.3 |
| 20260905184624 | 93 | 255 | 0.0 | 1.7 | 0.00 | 0.02 | 0.02 | 58 | 1014.3 |
| 20260905183053 | 93 | 0 | 0.0 | 0.9 | 0.00 | 0.02 | 0.02 | 61 | 1014.4 |
| 20260905181602 | 92 | 136 | 0.0 | 0.9 | 0.00 | 0.02 | 0.02 | 59 | 1014.6 |
| 20260905180057 | 92 | 0 | 0.9 | 3.5 | 0.00 | 0.02 | 0.02 | 59 | 1014.9 |
| 20260905174629 | 92 | 186 | 0.0 | 1.7 | 0.00 | 0.02 | 0.02 | 59 | 1014.9 |
| 20260905173052 | 92 | 250 | 0.0 | 1.7 | 0.00 | 0.02 | 0.02 | 62 | 1015.0 |
| 20260905171550 | 91 | 0 | 0.0 | 2.6 | 0.00 | 0.02 | 0.02 | 57 | 1015.3 |
| 20260905170057 | 91 | 96 | 0.0 | 0.9 | 0.00 | 0.02 | 0.02 | 59 | 1015.6 |
| 20260905164554 | 89 | 269 | 0.0 | 2.6 | 0.00 | 0.02 | 0.02 | 60 | 1015.8 |
| 20260905163053 | 88 | 248 | 0.0 | 2.6 | 0.00 | 0.02 | 0.02 | 60 | 1016.1 |
| 20260905161549 | 87 | 247 | 0.9 | 2.6 | 0.00 | 0.02 | 0.02 | 65 | 1016.0 |
| 20260905160055 | 87 | 272 | 0.0 | 2.6 | 0.00 | 0.02 | 0.02 | 63 | 1015.9 |
| 20260905154612 | 86 | 352 | 0.9 | 2.6 | 0.00 | 0.02 | 0.02 | 67 | 1015.8 |
| 20260905153052 | 84 | 250 | 0.9 | 3.5 | 0.00 | 0.02 | 0.02 | 69 | 1015.8 |
| 20260905151613 | 83 | 260 | 0.9 | 3.5 | 0.00 | 0.02 | 0.02 | 73 | 1015.8 |
| 20260905150056 | 82 | 232 | 0.0 | 3.5 | 0.00 | 0.02 | 0.02 | 75 | 1016.0 |
| 20260905144552 | 82 | 264 | 1.7 | 4.3 | 0.00 | 0.02 | 0.02 | 72 | 1016.1 |
| 20260905143052 | 82 | 237 | 0.0 | 3.5 | 0.00 | 0.02 | 0.02 | 75 | 1016.4 |
| 20260905141557 | 80 | 32 | 0.0 | 3.5 | 0.00 | 0.02 | 0.02 | 76 | 1016.7 |
| 20260905140056 | 78 | 259 | 0.9 | 6.1 | 0.00 | 0.02 | 0.02 | 77 | 1016.6 |
| 20260905134552 | 77 | 298 | 0.9 | 6.1 | 0.00 | 0.02 | 0.02 | 77 | 1016.7 |
| 20260905133057 | 77 | 260 | 2.6 | 6.1 | 0.00 | 0.02 | 0.02 | 79 | 1016.8 |
| 20260905131605 | 76 | 264 | 0.9 | 5.2 | 0.00 | 0.02 | 0.02 | 82 | 1017.2 |
| 20260905130056 | 75 | 0 | 1.7 | 6.1 | 0.00 | 0.02 | 0.02 | 84 | 1017.3 |
| 20260905124553 | 74 | 197 | 1.7 | 5.2 | 0.00 | 0.02 | 0.02 | 87 | 1017.0 |
| 20260905123102 | 75 | 198 | 2.6 | 9.6 | 0.00 | 0.02 | 0.02 | 86 | 1017.0 |
| 20260905121600 | 74 | 199 | 2.6 | 11.3 | 0.00 | 0.02 | 0.02 | 88 | 1016.4 |
| 20260905120054 | 74 | 181 | 0.0 | 1.7 | 0.00 | 0.02 | 0.02 | 91 | 1015.6 |
| 20260905114600 | 74 | 0 | 0.0 | 0.9 | 0.00 | 0.02 | 0.02 | 90 | 1015.7 |
| 20260905113057 | 76 | 41 | 0.0 | 2.6 | 0.02 | 0.02 | 0.02 | 89 | 1016.1 |
| 20260905111641 | 76 | 226 | 0.0 | 1.7 | 0.00 | 0.00 | 0.00 | 87 | 1015.4 |
| 20260905110053 | 77 | 0 | 0.0 | 3.5 | 0.00 | 0.00 | 0.00 | 87 | 1015.7 |
| 20260905104554 | 77 | 0 | 0.0 | 0.9 | 0.00 | 0.00 | 0.00 | 87 | 1015.2 |
| 20260905103058 | 77 | 0 | 0.0 | 0.9 | 0.00 | 0.00 | 0.00 | 88 | 1015.2 |
| 20260905101604 | 77 | 0 | 0.0 | 3.5 | 0.00 | 0.00 | 0.00 | 88 | 1014.6 |
| 20260905100056 | 76 | 206 | 1.7 | 3.5 | 0.00 | 0.00 | 0.00 | 89 | 1014.7 |
| 20260905094553 | 76 | 0 | 0.0 | 0.0 | 0.00 | 0.00 | 0.00 | 90 | 1014.6 |
| 20260905093105 | 76 | 0 | 0.0 | 0.0 | 0.00 | 0.00 | 0.00 | 90 | 1014.5 |
| 20260905091553 | 76 | 0 | 0.0 | 2.6 | 0.00 | 0.00 | 0.00 | 90 | 1014.6 |
| 20260905090051 | 77 | 0 | 0.0 | 0.0 | 0.00 | 0.00 | 0.00 | 90 | 1014.1 |
| 20260905084556 | 76 | 0 | 0.0 | 0.9 | 0.00 | 0.00 | 0.00 | 90 | 1014.4 |
| 20260905083100 | 76 | 129 | 0.0 | 0.9 | 0.00 | 0.00 | 0.00 | 90 | 1014.2 |
| 20260905081552 | 76 | 0 | 0.0 | 0.0 | 0.00 | 0.00 | 0.00 | 90 | 1013.9 |
| 20260905080100 | 76 | 0 | 0.0 | 0.0 | 0.00 | 0.00 | 0.00 | 90 | 1014.1 |
| 20260905074600 | 76 | 0 | 0.0 | 0.0 | 0.00 | 0.00 | 0.00 | 90 | 1014.0 |
| 20260905073057 | 76 | 0 | 0.0 | 0.0 | 0.00 | 0.00 | 0.00 | 90 | 1014.3 |
| 20260905071555 | 76 | 0 | 0.0 | 0.0 | 0.00 | 0.00 | 0.00 | 90 | 1014.5 |
| 20260905070053 | 77 | 0 | 0.0 | 0.0 | 0.00 | 0.00 | 0.00 | 90 | 1014.4 |
| 20260905064605 | 77 | 0 | 0.0 | 0.0 | 0.00 | 0.00 | 0.00 | 90 | 1014.6 |
| 20260905063056 | 77 | 0 | 0.0 | 0.0 | 0.00 | 0.00 | 0.00 | 90 | 1014.8 |
| 20260905061557 | 77 | 0 | 0.0 | 0.0 | 0.00 | 0.00 | 0.00 | 89 | 1015.0 |
| 20260905060052 | 77 | 0 | 0.0 | 0.0 | 0.00 | 0.00 | 0.00 | 90 | 1015.3 |
| 20260905054600 | 77 | 0 | 0.0 | 0.0 | 0.00 | 0.00 | 0.00 | 89 | 1015.2 |
| 20260905053100 | 77 | 0 | 0.0 | 0.0 | 0.00 | 0.00 | 0.00 | 89 | 1015.4 |
| 20260905051553 | 77 | 0 | 0.0 | 0.0 | 0.00 | 0.00 | 0.00 | 89 | 1015.3 |
| 20260905050056 | 78 | 0 | 0.0 | 0.0 | 0.00 | 0.00 | 0.00 | 89 | 1015.3 |
| 20260905044552 | 77 | 0 | 0.0 | 0.0 | 0.00 | 0.00 | 0.00 | 88 | 1015.5 |
| 20260905043059 | 78 | 0 | 0.0 | 0.0 | 0.00 | 0.00 | 0.00 | 88 | 1015.5 |
| 20260905041559 | 78 | 0 | 0.0 | 0.0 | 0.00 | 0.00 | 0.00 | 87 | 1015.5 |
| 20260905040056 | 79 | 0 | 0.0 | 0.0 | 0.00 | 0.00 | 0.00 | 86 | 1015.6 |
| 20260905034611 | 79 | 0 | 0.0 | 0.9 | 0.00 | 0.00 | 0.00 | 86 | 1015.5 |
| 20260905033115 | 79 | 0 | 0.0 | 0.0 | 0.00 | 0.00 | 0.00 | 85 | 1015.5 |
| 20260905031602 | 80 | 0 | 0.0 | 0.0 | 0.00 | 0.00 | 0.00 | 86 | 1015.5 |
| 20260905030057 | 80 | 0 | 0.0 | 0.0 | 0.00 | 0.00 | 0.00 | 87 | 1015.6 |
| 20260905024550 | 80 | 0 | 0.0 | 0.0 | 0.00 | 0.00 | 0.00 | 86 | 1015.7 |
| 20260905023120 | 80 | 0 | 0.0 | 0.0 | 0.00 | 0.00 | 0.00 | 87 | 1015.5 |
| 20260905021552 | 80 | 0 | 0.0 | 0.0 | 0.00 | 0.00 | 0.00 | 87 | 1015.5 |
| 20260905020051 | 80 | 0 | 0.0 | 0.0 | 0.00 | 0.00 | 0.00 | 85 | 1015.5 |
| 20260905014552 | 81 | 0 | 0.0 | 0.0 | 0.00 | 0.00 | 0.00 | 86 | 1015.5 |
| 20260905013058 | 81 | 0 | 0.0 | 0.0 | 0.00 | 0.00 | 0.00 | 85 | 1015.2 |
| 20260905011600 | 81 | 0 | 0.0 | 0.0 | 0.00 | 0.00 | 0.00 | 85 | 1015.0 |
| 20260905010105 | 82 | 0 | 0.0 | 0.0 | 0.00 | 0.00 | 0.00 | 85 | 1014.9 |
| 20260905004553 | 83 | 0 | 0.0 | 0.0 | 0.00 | 0.00 | 0.00 | 85 | 1014.7 |
| 20260905003106 | 83 | 0 | 0.0 | 0.0 | 0.00 | 0.00 | 0.00 | 83 | 1014.6 |
| 20260905001601 | 84 | 0 | 0.0 | 0.0 | 0.00 | 0.00 | 0.00 | 81 | 1014.4 |
| 20260904234551 | 86 | 0 | 0.0 | 0.0 | 0.00 | 0.00 | 0.00 | 78 | 1014.3 |
| 20260904233057 | 87 | 0 | 0.0 | 0.0 | 0.00 | 0.00 | 0.00 | 75 | 1014.3 |
| 20260904231556 | 87 | 0 | 0.0 | 0.0 | 0.00 | 0.00 | 0.00 | 71 | 1014.5 |
| 20260904230110 | 88 | 0 | 0.0 | 0.0 | 0.00 | 0.00 | 0.00 | 71 | 1014.6 |